Location: Ferchesar
(52.6477°N, 12.4298°E)
Time: 04:35:02
(UTC+01:00)

Vanguard 1 Rocket - Pass Details

Date: 10 December 2021
Orbit: 651 x 4224 km, 34.3° (Epoch: 15 January)

Event Time Altitude Azimuth Distance (km) Brightness Sun altitude
Exits shadow 04:58:56 24° 228° (SW) 3,853 10.1 -27.6°
Maximum altitude 05:05:22 34° 189° (S) 3,994 10.5 -26.7°
Drops below altitude 10° 05:23:06 10° 136° (SE) 7,015 12.5 -24.0°
Sets 05:30:06 0° 129° (SE) 8,333 13.2 -22.9°
